| time (UTC) | temp F | wind direction | speed MPH | gust MPH | rain 1hr in | rain 24hr in | rain mn in | humidity % | barometer mb |
| 20260506073033 | 69 | 276 | 4.0 | 9.0 | 0.00 | 0.00 | 0.00 | 46 | 1006.3 |
| 20260506072543 | 68 | 281 | 3.0 | 8.0 | 0.00 | 0.00 | 0.00 | 47 | 1006.3 |
| 20260506072029 | 68 | 230 | 2.0 | 7.0 | 0.00 | 0.00 | 0.00 | 50 | 1006.4 |
| 20260506071527 | 67 | 272 | 3.0 | 6.0 | 0.00 | 0.00 | 0.00 | 50 | 1006.3 |
| 20260506071025 | 67 | 237 | 3.0 | 8.0 | 0.00 | 0.00 | 0.00 | 51 | 1006.4 |
| 20260506070524 | 66 | 278 | 2.0 | 7.0 | 0.00 | 0.00 | 0.00 | 51 | 1006.3 |
| 20260506062027 | 62 | 215 | 2.0 | 4.0 | 0.00 | 0.00 | 0.00 | 55 | 1006.4 |
| 20260506061526 | 62 | 184 | 3.0 | 7.0 | 0.00 | 0.00 | 0.00 | 56 | 1006.5 |
| 20260506061025 | 61 | 183 | 3.0 | 8.0 | 0.00 | 0.00 | 0.00 | 56 | 1006.5 |
| 20260506060522 | 61 | 177 | 5.0 | 10.0 | 0.00 | 0.00 | 0.00 | 56 | 1006.6 |
| 20260506051022 | 58 | 160 | 2.0 | 4.0 | 0.00 | 0.00 | 0.00 | 59 | 1006.5 |
| 20260506050521 | 58 | 169 | 2.0 | 7.0 | 0.00 | 0.00 | 0.00 | 59 | 1006.6 |
| 20260506045035 | 57 | 166 | 1.0 | 4.0 | 0.00 | 0.00 | 0.00 | 60 | 1006.5 |
| 20260506044533 | 57 | 111 | 1.0 | 3.0 | 0.00 | 0.00 | 0.00 | 60 | 1006.5 |
| 20260506044033 | 57 | 140 | 1.0 | 4.0 | 0.00 | 0.00 | 0.00 | 61 | 1006.7 |
| 20260506043530 | 56 | 120 | 2.0 | 3.0 | 0.00 | 0.00 | 0.00 | 61 | 1006.6 |
| 20260506043028 | 56 | 102 | 2.0 | 3.0 | 0.00 | 0.00 | 0.00 | 62 | 1006.7 |
| 20260506042526 | 55 | 129 | 1.0 | 3.0 | 0.00 | 0.00 | 0.00 | 62 | 1006.8 |
| 20260506042024 | 55 | 152 | 1.0 | 3.0 | 0.00 | 0.00 | 0.00 | 61 | 1006.8 |
| 20260506041522 | 55 | 0.0 | 0.0 | 0.00 | 0.00 | 0.00 | 60 | 1006.9 | |
| 20260506041020 | 55 | 0.0 | 0.0 | 0.00 | 0.00 | 0.00 | 60 | 1006.7 | |
| 20260506040518 | 55 | 0.0 | 0.0 | 0.00 | 0.00 | 0.00 | 60 | 1006.7 | |
| 20260506040048 | 55 | 105 | 1.0 | 2.0 | 0.00 | 0.00 | 0.00 | 60 | 1006.7 |
| 20260506040017 | 55 | 105 | 1.0 | 2.0 | 0.00 | 0.00 | 0.00 | 60 | 1006.7 |
| 20260506035535 | 55 | 109 | 1.0 | 2.0 | 0.00 | 0.00 | 0.00 | 60 | 1006.8 |
| 20260506035034 | 55 | 134 | 0.0 | 2.0 | 0.00 | 0.00 | 0.00 | 61 | 1006.7 |
| 20260506034531 | 55 | 104 | 1.0 | 2.0 | 0.00 | 0.00 | 0.00 | 60 | 1006.6 |
| 20260506034030 | 55 | 104 | 1.0 | 2.0 | 0.00 | 0.00 | 0.00 | 59 | 1006.5 |
| 20260506033528 | 55 | 103 | 2.0 | 2.0 | 0.00 | 0.00 | 0.00 | 59 | 1006.5 |
| 20260506033025 | 55 | 103 | 2.0 | 2.0 | 0.00 | 0.00 | 0.00 | 59 | 1006.6 |
| 20260506032524 | 55 | 102 | 1.0 | 2.0 | 0.00 | 0.00 | 0.00 | 59 | 1006.6 |
| 20260506032022 | 55 | 101 | 1.0 | 2.0 | 0.00 | 0.00 | 0.00 | 59 | 1006.6 |
| 20260506031520 | 55 | 105 | 2.0 | 3.0 | 0.00 | 0.00 | 0.00 | 59 | 1006.5 |
| 20260506031018 | 55 | 103 | 2.0 | 3.0 | 0.00 | 0.00 | 0.00 | 59 | 1006.6 |
| 20260506030516 | 55 | 101 | 2.0 | 3.0 | 0.00 | 0.00 | 0.00 | 59 | 1006.6 |
| 20260506030035 | 55 | 108 | 1.0 | 2.0 | 0.00 | 0.00 | 0.00 | 59 | 1006.7 |
| 20260506025533 | 55 | 110 | 1.0 | 2.0 | 0.00 | 0.00 | 0.00 | 59 | 1006.7 |
| 20260506025106 | 55 | 109 | 2.0 | 3.0 | 0.00 | 0.00 | 0.00 | 59 | 1006.6 |
| 20260506025032 | 55 | 109 | 2.0 | 3.0 | 0.00 | 0.00 | 0.00 | 59 | 1006.6 |
| 20260506024530 | 56 | 100 | 1.0 | 3.0 | 0.00 | 0.00 | 0.00 | 57 | 1006.8 |
| 20260506024028 | 56 | 0.0 | 0.0 | 0.00 | 0.00 | 0.00 | 57 | 1006.8 | |
| 20260506023525 | 56 | 99 | 0.0 | 1.0 | 0.00 | 0.00 | 0.00 | 57 | 1006.7 |
| 20260506023024 | 56 | 120 | 1.0 | 2.0 | 0.00 | 0.00 | 0.00 | 57 | 1006.7 |
| 20260506022522 | 56 | 107 | 1.0 | 3.0 | 0.00 | 0.00 | 0.00 | 57 | 1006.6 |
| 20260506022020 | 56 | 102 | 2.0 | 3.0 | 0.00 | 0.00 | 0.00 | 57 | 1006.6 |
| 20260506021518 | 56 | 109 | 2.0 | 4.0 | 0.00 | 0.00 | 0.00 | 57 | 1006.7 |
| 20260506021016 | 56 | 101 | 2.0 | 4.0 | 0.00 | 0.00 | 0.00 | 56 | 1006.8 |
| 20260506020535 | 56 | 95 | 0.0 | 3.0 | 0.00 | 0.00 | 0.00 | 55 | 1006.9 |
| 20260506020033 | 56 | 0.0 | 0.0 | 0.00 | 0.00 | 0.00 | 55 | 1006.8 | |
| 20260506015531 | 56 | 0.0 | 0.0 | 0.00 | 0.00 | 0.00 | 55 | 1006.8 | |
| 20260506015030 | 56 | 0.0 | 0.0 | 0.00 | 0.00 | 0.00 | 56 | 1006.9 | |
| 20260506014527 | 56 | 0.0 | 0.0 | 0.00 | 0.00 | 0.00 | 56 | 1007.0 | |
| 20260506014026 | 56 | 0.0 | 0.0 | 0.00 | 0.00 | 0.00 | 56 | 1007.0 | |
| 20260506013524 | 56 | 0.0 | 0.0 | 0.00 | 0.00 | 0.00 | 55 | 1007.0 | |
| 20260506013034 | 56 | 0.0 | 0.0 | 0.00 | 0.00 | 0.00 | 55 | 1007.0 | |
| 20260506012521 | 56 | 0.0 | 0.0 | 0.00 | 0.00 | 0.00 | 55 | 1007.1 | |
| 20260506012019 | 56 | 0.0 | 0.0 | 0.00 | 0.00 | 0.00 | 54 | 1007.0 | |
| 20260506011517 | 56 | 0.0 | 0.0 | 0.00 | 0.00 | 0.00 | 54 | 1007.0 | |
| 20260506011035 | 56 | 0.0 | 0.0 | 0.00 | 0.00 | 0.00 | 54 | 1007.0 | |
| 20260506010533 | 56 | 0.0 | 0.0 | 0.00 | 0.00 | 0.00 | 53 | 1007.0 | |
| 20260506010032 | 56 | 0.0 | 0.0 | 0.00 | 0.00 | 0.00 | 53 | 1007.0 | |
| 20260506005530 | 56 | 0.0 | 0.0 | 0.00 | 0.00 | 0.00 | 53 | 1006.9 | |
| 20260506005028 | 57 | 0.0 | 0.0 | 0.00 | 0.00 | 0.00 | 53 | 1007.0 | |
| 20260506004526 | 57 | 0.0 | 0.0 | 0.00 | 0.00 | 0.00 | 52 | 1006.9 | |
| 20260506004024 | 57 | 0.0 | 0.0 | 0.00 | 0.00 | 0.00 | 52 | 1007.0 | |
| 20260506003522 | 57 | 183 | 0.0 | 1.0 | 0.00 | 0.00 | 0.00 | 52 | 1007.0 |
| 20260506003020 | 57 | 0.0 | 0.0 | 0.00 | 0.00 | 0.00 | 52 | 1007.0 | |
| 20260506002519 | 57 | 217 | 0.0 | 1.0 | 0.00 | 0.00 | 0.00 | 52 | 1007.0 |
| 20260506002049 | 57 | 192 | 2.0 | 4.0 | 0.00 | 0.00 | 0.00 | 52 | 1007.0 |
| 20260506002017 | 57 | 192 | 2.0 | 4.0 | 0.00 | 0.00 | 0.00 | 52 | 1007.0 |
| 20260506001535 | 57 | 188 | 2.0 | 4.0 | 0.00 | 0.00 | 0.00 | 51 | 1007.1 |
| 20260506001033 | 57 | 174 | 1.0 | 4.0 | 0.00 | 0.00 | 0.00 | 51 | 1007.1 |
| 20260506000532 | 58 | 0.0 | 0.0 | 0.00 | 0.00 | 0.00 | 51 | 1007.0 | |
| 20260506000030 | 58 | 206 | 0.0 | 1.0 | 0.00 | 0.00 | 0.00 | 51 | 1007.0 |
| 20260505235528 | 58 | 193 | 1.0 | 4.0 | 0.00 | 0.00 | 0.00 | 51 | 1007.1 |
| 20260505235027 | 58 | 191 | 1.0 | 4.0 | 0.00 | 0.00 | 0.00 | 50 | 1007.2 |
| 20260505234525 | 58 | 189 | 1.0 | 4.0 | 0.00 | 0.00 | 0.00 | 50 | 1007.2 |
| 20260505234023 | 58 | 192 | 2.0 | 4.0 | 0.00 | 0.00 | 0.00 | 50 | 1007.2 |
| 20260505233521 | 58 | 187 | 3.0 | 7.0 | 0.00 | 0.00 | 0.00 | 50 | 1007.3 |
| 20260505233050 | 58 | 190 | 3.0 | 6.0 | 0.00 | 0.00 | 0.00 | 50 | 1007.1 |
| 20260505233019 | 58 | 190 | 3.0 | 6.0 | 0.00 | 0.00 | 0.00 | 50 | 1007.1 |
| 20260505232517 | 58 | 188 | 3.0 | 8.0 | 0.00 | 0.00 | 0.00 | 50 | 1007.3 |
| 20260505232046 | 58 | 186 | 3.0 | 6.0 | 0.00 | 0.00 | 0.00 | 50 | 1007.2 |
| 20260505232015 | 58 | 186 | 3.0 | 6.0 | 0.00 | 0.00 | 0.00 | 50 | 1007.2 |
| 20260505231534 | 59 | 181 | 2.0 | 6.0 | 0.00 | 0.00 | 0.00 | 50 | 1007.2 |
| 20260505231032 | 59 | 186 | 2.0 | 4.0 | 0.00 | 0.00 | 0.00 | 50 | 1007.2 |
| 20260505230531 | 59 | 187 | 2.0 | 4.0 | 0.00 | 0.00 | 0.00 | 50 | 1007.2 |
| 20260505230030 | 59 | 184 | 2.0 | 3.0 | 0.00 | 0.00 | 0.00 | 49 | 1007.2 |
| 20260505225527 | 59 | 188 | 2.0 | 4.0 | 0.00 | 0.00 | 0.00 | 49 | 1007.1 |
| 20260505225116 | 60 | 193 | 2.0 | 4.0 | 0.00 | 0.00 | 0.00 | 49 | 1007.1 |
| 20260505225025 | 60 | 193 | 2.0 | 4.0 | 0.00 | 0.00 | 0.00 | 49 | 1007.1 |
| 20260505224523 | 60 | 189 | 2.0 | 3.0 | 0.00 | 0.00 | 0.00 | 48 | 1007.1 |
| 20260505224021 | 60 | 188 | 1.0 | 4.0 | 0.00 | 0.00 | 0.00 | 48 | 1007.1 |
| 20260505223520 | 60 | 181 | 1.0 | 4.0 | 0.00 | 0.00 | 0.00 | 48 | 1007.1 |
| 20260505223018 | 60 | 184 | 2.0 | 6.0 | 0.00 | 0.00 | 0.00 | 47 | 1007.1 |
| 20260505222516 | 61 | 182 | 2.0 | 4.0 | 0.00 | 0.00 | 0.00 | 47 | 1007.1 |
| 20260505222034 | 61 | 177 | 3.0 | 6.0 | 0.00 | 0.00 | 0.00 | 47 | 1007.1 |
| 20260505221532 | 61 | 176 | 2.0 | 4.0 | 0.00 | 0.00 | 0.00 | 47 | 1007.2 |
| 20260505221031 | 61 | 177 | 2.0 | 3.0 | 0.00 | 0.00 | 0.00 | 46 | 1007.2 |
| 20260505220529 | 62 | 173 | 2.0 | 3.0 | 0.00 | 0.00 | 0.00 | 46 | 1007.2 |
| 20260505220059 | 62 | 177 | 2.0 | 3.0 | 0.00 | 0.00 | 0.00 | 45 | 1007.3 |
| 20260505220027 | 62 | 177 | 2.0 | 3.0 | 0.00 | 0.00 | 0.00 | 45 | 1007.3 |
| 20260505215525 | 62 | 180 | 2.0 | 6.0 | 0.00 | 0.00 | 0.00 | 45 | 1007.3 |
| 20260505215023 | 62 | 188 | 1.0 | 3.0 | 0.00 | 0.00 | 0.00 | 45 | 1007.3 |
| 20260505214521 | 63 | 182 | 2.0 | 3.0 | 0.00 | 0.00 | 0.00 | 45 | 1007.3 |
| 20260505214020 | 63 | 188 | 2.0 | 4.0 | 0.00 | 0.00 | 0.00 | 45 | 1007.3 |
| 20260505213518 | 63 | 184 | 3.0 | 4.0 | 0.00 | 0.00 | 0.00 | 44 | 1007.2 |
| 20260505213047 | 63 | 182 | 3.0 | 6.0 | 0.00 | 0.00 | 0.00 | 44 | 1007.2 |
| 20260505213016 | 63 | 182 | 3.0 | 6.0 | 0.00 | 0.00 | 0.00 | 44 | 1007.2 |
| 20260505212535 | 63 | 190 | 2.0 | 4.0 | 0.00 | 0.00 | 0.00 | 44 | 1007.2 |
| 20260505212033 | 64 | 181 | 2.0 | 4.0 | 0.00 | 0.00 | 0.00 | 44 | 1007.1 |
| 20260505211531 | 64 | 184 | 3.0 | 6.0 | 0.00 | 0.00 | 0.00 | 44 | 1007.1 |
| 20260505211029 | 64 | 178 | 3.0 | 6.0 | 0.00 | 0.00 | 0.00 | 43 | 1007.1 |
| 20260505210527 | 64 | 178 | 3.0 | 6.0 | 0.00 | 0.00 | 0.00 | 43 | 1007.1 |
| 20260505210027 | 65 | 185 | 3.0 | 6.0 | 0.00 | 0.00 | 0.00 | 43 | 1007.2 |
| 20260505205524 | 65 | 182 | 2.0 | 3.0 | 0.00 | 0.00 | 0.00 | 42 | 1007.1 |
| 20260505205022 | 65 | 175 | 2.0 | 3.0 | 0.00 | 0.00 | 0.00 | 42 | 1007.1 |
| 20260505204520 | 65 | 181 | 2.0 | 3.0 | 0.00 | 0.00 | 0.00 | 42 | 1007.1 |
| 20260505204049 | 65 | 181 | 2.0 | 4.0 | 0.00 | 0.00 | 0.00 | 42 | 1007.1 |
| 20260505204018 | 65 | 181 | 2.0 | 4.0 | 0.00 | 0.00 | 0.00 | 42 | 1007.1 |
| 20260505203516 | 65 | 186 | 3.0 | 6.0 | 0.00 | 0.00 | 0.00 | 42 | 1007.1 |
| 20260505203035 | 65 | 195 | 2.0 | 4.0 | 0.00 | 0.00 | 0.00 | 42 | 1007.1 |
| 20260505202534 | 65 | 182 | 3.0 | 7.0 | 0.00 | 0.00 | 0.00 | 43 | 1007.0 |
| 20260505202031 | 65 | 181 | 2.0 | 4.0 | 0.00 | 0.00 | 0.00 | 42 | 1007.0 |
| 20260505201529 | 65 | 206 | 1.0 | 3.0 | 0.00 | 0.00 | 0.00 | 42 | 1006.9 |
| 20260505201027 | 66 | 183 | 3.0 | 7.0 | 0.00 | 0.00 | 0.00 | 43 | 1006.9 |
| 20260505200526 | 66 | 186 | 2.0 | 4.0 | 0.00 | 0.00 | 0.00 | 43 | 1007.0 |
| 20260505200025 | 66 | 178 | 3.0 | 6.0 | 0.00 | 0.00 | 0.00 | 43 | 1006.9 |
| 20260505195523 | 66 | 174 | 2.0 | 3.0 | 0.00 | 0.00 | 0.00 | 42 | 1006.9 |
| 20260505195020 | 67 | 177 | 0.0 | 1.0 | 0.00 | 0.00 | 0.00 | 42 | 1006.8 |
| 20260505194518 | 67 | 177 | 0.0 | 1.0 | 0.00 | 0.00 | 0.00 | 41 | 1006.7 |
| 20260505194017 | 67 | 177 | 1.0 | 2.0 | 0.00 | 0.00 | 0.00 | 41 | 1006.7 |
| 20260505193535 | 67 | 177 | 1.0 | 2.0 | 0.00 | 0.00 | 0.00 | 40 | 1006.8 |
| 20260505193032 | 68 | 178 | 1.0 | 2.0 | 0.00 | 0.00 | 0.00 | 40 | 1006.7 |
| 20260505192531 | 68 | 177 | 1.0 | 2.0 | 0.00 | 0.00 | 0.00 | 39 | 1006.8 |
| 20260505192029 | 69 | 174 | 1.0 | 2.0 | 0.00 | 0.00 | 0.00 | 39 | 1006.8 |
| 20260505191527 | 69 | 173 | 2.0 | 2.0 | 0.00 | 0.00 | 0.00 | 38 | 1006.8 |
| 20260505191026 | 69 | 173 | 2.0 | 2.0 | 0.00 | 0.00 | 0.00 | 38 | 1006.9 |
| 20260505190523 | 70 | 177 | 1.0 | 3.0 | 0.00 | 0.00 | 0.00 | 38 | 1006.8 |
| 20260505190021 | 70 | 180 | 1.0 | 2.0 | 0.00 | 0.00 | 0.00 | 38 | 1006.8 |
| 20260505185520 | 70 | 175 | 0.0 | 2.0 | 0.00 | 0.00 | 0.00 | 37 | 1006.8 |
| 20260505185018 | 71 | 177 | 0.0 | 3.0 | 0.00 | 0.00 | 0.00 | 37 | 1006.8 |
| 20260505184516 | 71 | 168 | 0.0 | 1.0 | 0.00 | 0.00 | 0.00 | 37 | 1006.8 |
| 20260505184034 | 71 | 161 | 0.0 | 1.0 | 0.00 | 0.00 | 0.00 | 37 | 1006.7 |
| 20260505183533 | 72 | 171 | 0.0 | 2.0 | 0.00 | 0.00 | 0.00 | 36 | 1006.8 |
| 20260505183031 | 72 | 166 | 0.0 | 2.0 | 0.00 | 0.00 | 0.00 | 35 | 1006.8 |
| 20260505182529 | 72 | 0.0 | 0.0 | 0.00 | 0.00 | 0.00 | 35 | 1006.7 | |
| 20260505182027 | 73 | 0.0 | 0.0 | 0.00 | 0.00 | 0.00 | 34 | 1006.8 | |
| 20260505181525 | 73 | 0.0 | 0.0 | 0.00 | 0.00 | 0.00 | 34 | 1006.7 | |
| 20260505181023 | 74 | 0.0 | 0.0 | 0.00 | 0.00 | 0.00 | 34 | 1006.8 | |
| 20260505180522 | 74 | 166 | 1.0 | 3.0 | 0.00 | 0.00 | 0.00 | 33 | 1006.7 |
| 20260505180019 | 74 | 173 | 1.0 | 2.0 | 0.00 | 0.00 | 0.00 | 33 | 1006.8 |
| 20260505175517 | 74 | 176 | 1.0 | 2.0 | 0.00 | 0.00 | 0.00 | 32 | 1006.9 |
| 20260505175036 | 75 | 177 | 1.0 | 2.0 | 0.00 | 0.00 | 0.00 | 32 | 1006.8 |
| 20260505174534 | 75 | 161 | 1.0 | 4.0 | 0.00 | 0.00 | 0.00 | 32 | 1006.7 |
| 20260505174032 | 75 | 167 | 1.0 | 6.0 | 0.00 | 0.00 | 0.00 | 32 | 1006.7 |
| 20260505173530 | 75 | 160 | 1.0 | 3.0 | 0.00 | 0.00 | 0.00 | 32 | 1006.7 |
| 20260505173028 | 75 | 163 | 2.0 | 4.0 | 0.00 | 0.00 | 0.00 | 32 | 1006.7 |
| 20260505172525 | 75 | 162 | 2.0 | 4.0 | 0.00 | 0.00 | 0.00 | 32 | 1006.7 |
| 20260505172024 | 76 | 167 | 2.0 | 3.0 | 0.00 | 0.00 | 0.00 | 31 | 1006.8 |
| 20260505171522 | 76 | 171 | 2.0 | 4.0 | 0.00 | 0.00 | 0.00 | 31 | 1006.7 |
| 20260505171020 | 76 | 171 | 2.0 | 6.0 | 0.00 | 0.00 | 0.00 | 31 | 1006.7 |
| 20260505170518 | 76 | 159 | 1.0 | 4.0 | 0.00 | 0.00 | 0.00 | 31 | 1006.7 |
| 20260505170049 | 76 | 177 | 1.0 | 4.0 | 0.00 | 0.00 | 0.00 | 30 | 1006.8 |
| 20260505170016 | 76 | 177 | 1.0 | 4.0 | 0.00 | 0.00 | 0.00 | 30 | 1006.8 |
| 20260505165534 | 76 | 179 | 2.0 | 3.0 | 0.00 | 0.00 | 0.00 | 30 | 1006.8 |
| 20260505165032 | 76 | 171 | 1.0 | 3.0 | 0.00 | 0.00 | 0.00 | 30 | 1006.9 |
| 20260505164530 | 76 | 149 | 1.0 | 4.0 | 0.00 | 0.00 | 0.00 | 29 | 1006.8 |
| 20260505164029 | 76 | 144 | 0.0 | 2.0 | 0.00 | 0.00 | 0.00 | 28 | 1006.9 |
| 20260505163527 | 76 | 172 | 1.0 | 4.0 | 0.00 | 0.00 | 0.00 | 28 | 1006.8 |
| 20260505163043 | 77 | 156 | 2.0 | 4.0 | 0.00 | 0.00 | 0.00 | 28 | 1007.0 |
| 20260505163025 | 76 | 176 | 1.0 | 4.0 | 0.00 | 0.00 | 0.00 | 28 | 1006.9 |
| 20260505162525 | 77 | 156 | 2.0 | 4.0 | 0.00 | 0.00 | 0.00 | 28 | 1007.0 |
| 20260505162021 | 77 | 168 | 2.0 | 4.0 | 0.00 | 0.00 | 0.00 | 27 | 1007.0 |
| 20260505161519 | 77 | 164 | 2.0 | 3.0 | 0.00 | 0.00 | 0.00 | 27 | 1007.0 |
| 20260505161049 | 77 | 168 | 60.0 | 4.0 | 0.00 | 0.00 | 0.00 | 27 | 1007.1 |
| 20260505161017 | 77 | 168 | 2.0 | 4.0 | 0.00 | 0.00 | 0.00 | 27 | 1007.1 |
| 20260505160536 | 77 | 143 | 1.0 | 3.0 | 0.00 | 0.00 | 0.00 | 27 | 1007.1 |
| 20260505153022 | 78 | 135 | 2.0 | 6.0 | 0.00 | 0.00 | 0.00 | 26 | 1007.4 |
| 20260505152520 | 78 | 161 | 1.0 | 3.0 | 0.00 | 0.00 | 0.00 | 26 | 1007.5 |
| 20260505152018 | 78 | 171 | 2.0 | 4.0 | 0.00 | 0.00 | 0.00 | 25 | 1007.5 |
| 20260505151516 | 78 | 171 | 4.0 | 9.0 | 0.00 | 0.00 | 0.00 | 24 | 1007.6 |
| 20260505151035 | 78 | 180 | 3.0 | 9.0 | 0.00 | 0.00 | 0.00 | 25 | 1007.7 |
| 20260505150532 | 78 | 180 | 4.0 | 9.0 | 0.00 | 0.00 | 0.00 | 25 | 1007.7 |
| 20260505140530 | 80 | 178 | 5.0 | 13.0 | 0.00 | 0.00 | 0.00 | 24 | 1008.1 |
| 20260505125022 | 80 | 174 | 6.0 | 11.0 | 0.00 | 0.00 | 0.00 | 26 | 1008.7 |
| 20260505124519 | 80 | 148 | 4.0 | 13.0 | 0.00 | 0.00 | 0.00 | 27 | 1008.6 |
| 20260505124101 | 80 | 172 | 3.0 | 7.0 | 0.00 | 0.00 | 0.00 | 27 | 1008.7 |
| 20260505124017 | 80 | 172 | 3.0 | 7.0 | 0.00 | 0.00 | 0.00 | 27 | 1008.7 |
| 20260505123516 | 80 | 197 | 3.0 | 9.0 | 0.00 | 0.00 | 0.00 | 27 | 1008.9 |
| 20260505123034 | 80 | 206 | 2.0 | 6.0 | 0.00 | 0.00 | 0.00 | 27 | 1008.9 |
| 20260505122533 | 80 | 247 | 4.0 | 10.0 | 0.00 | 0.00 | 0.00 | 25 | 1009.0 |
| 20260505122030 | 80 | 192 | 5.0 | 13.0 | 0.00 | 0.00 | 0.00 | 25 | 1009.0 |
| 20260505121529 | 80 | 252 | 3.0 | 8.0 | 0.00 | 0.00 | 0.00 | 24 | 1009.0 |
| 20260505121026 | 80 | 213 | 5.0 | 13.0 | 0.00 | 0.00 | 0.00 | 24 | 1009.0 |
| 20260505120525 | 81 | 209 | 7.0 | 14.0 | 0.00 | 0.00 | 0.00 | 24 | 1009.1 |
| 20260505120023 | 81 | 189 | 4.0 | 13.0 | 0.00 | 0.00 | 0.00 | 26 | 1009.0 |
| 20260505115521 | 81 | 223 | 4.0 | 10.0 | 0.00 | 0.00 | 0.00 | 25 | 1009.1 |
| 20260505115021 | 81 | 184 | 8.0 | 17.0 | 0.00 | 0.00 | 0.00 | 25 | 1009.1 |
| 20260505114517 | 81 | 188 | 5.0 | 11.0 | 0.00 | 0.00 | 0.00 | 25 | 1009.2 |
| 20260505114035 | 81 | 189 | 6.0 | 13.0 | 0.00 | 0.00 | 0.00 | 25 | 1009.3 |
| 20260505113534 | 80 | 230 | 4.0 | 10.0 | 0.00 | 0.00 | 0.00 | 26 | 1009.3 |
| 20260505113032 | 80 | 200 | 4.0 | 8.0 | 0.00 | 0.00 | 0.00 | 26 | 1009.3 |
| 20260505112529 | 81 | 177 | 5.0 | 14.0 | 0.00 | 0.00 | 0.00 | 25 | 1009.4 |
| 20260505112027 | 81 | 225 | 6.0 | 11.0 | 0.00 | 0.00 | 0.00 | 24 | 1009.5 |
| 20260505111526 | 81 | 208 | 6.0 | 17.0 | 0.00 | 0.00 | 0.00 | 25 | 1009.5 |
| 20260505111024 | 81 | 217 | 5.0 | 17.0 | 0.00 | 0.00 | 0.00 | 24 | 1009.5 |
| 20260505110521 | 81 | 231 | 6.0 | 15.0 | 0.00 | 0.00 | 0.00 | 24 | 1009.6 |
| 20260505102100 | 79 | 229 | 5.0 | 11.0 | 0.00 | 0.00 | 0.00 | 28 | 1009.9 |
| 20260505102024 | 79 | 229 | 5.0 | 11.0 | 0.00 | 0.00 | 0.00 | 28 | 1009.9 |
| 20260505101522 | 79 | 240 | 4.0 | 9.0 | 0.00 | 0.00 | 0.00 | 28 | 1010.1 |
| 20260505101021 | 79 | 205 | 6.0 | 13.0 | 0.00 | 0.00 | 0.00 | 27 | 1010.1 |
| 20260505100518 | 80 | 220 | 6.0 | 14.0 | 0.00 | 0.00 | 0.00 | 27 | 1010.0 |
| 20260505100148 | 80 | 188 | 6.0 | 15.0 | 0.00 | 0.00 | 0.00 | 28 | 1010.2 |
| 20260505100017 | 80 | 188 | 6.0 | 15.0 | 0.00 | 0.00 | 0.00 | 28 | 1010.2 |
| 20260505095535 | 79 | 185 | 5.0 | 13.0 | 0.00 | 0.00 | 0.00 | 28 | 1010.3 |
| 20260505095033 | 79 | 193 | 8.0 | 17.0 | 0.00 | 0.00 | 0.00 | 27 | 1010.3 |
| 20260505094531 | 79 | 200 | 6.0 | 14.0 | 0.00 | 0.00 | 0.00 | 28 | 1010.4 |
| 20260505094029 | 79 | 180 | 7.0 | 15.0 | 0.00 | 0.00 | 0.00 | 29 | 1010.3 |
| 20260505093528 | 79 | 177 | 8.0 | 17.0 | 0.00 | 0.00 | 0.00 | 28 | 1010.4 |
| 20260505093026 | 79 | 183 | 7.0 | 15.0 | 0.00 | 0.00 | 0.00 | 29 | 1010.4 |
| 20260505092524 | 79 | 227 | 6.0 | 13.0 | 0.00 | 0.00 | 0.00 | 30 | 1010.4 |
| 20260505092022 | 78 | 244 | 5.0 | 14.0 | 0.00 | 0.00 | 0.00 | 32 | 1010.4 |
| 20260505091520 | 78 | 186 | 6.0 | 15.0 | 0.00 | 0.00 | 0.00 | 32 | 1010.5 |
| 20260505091019 | 78 | 204 | 5.0 | 14.0 | 0.00 | 0.00 | 0.00 | 31 | 1010.5 |
| 20260505090517 | 78 | 191 | 5.0 | 9.0 | 0.00 | 0.00 | 0.00 | 32 | 1010.6 |
| 20260505090035 | 78 | 212 | 6.0 | 15.0 | 0.00 | 0.00 | 0.00 | 32 | 1010.5 |
| 20260505085533 | 77 | 228 | 5.0 | 14.0 | 0.00 | 0.00 | 0.00 | 33 | 1010.6 |
| 20260505085031 | 77 | 221 | 4.0 | 10.0 | 0.00 | 0.00 | 0.00 | 33 | 1010.7 |
| 20260505084530 | 76 | 251 | 5.0 | 9.0 | 0.00 | 0.00 | 0.00 | 32 | 1010.7 |
| 20260505084027 | 76 | 260 | 4.0 | 9.0 | 0.00 | 0.00 | 0.00 | 32 | 1010.8 |
| 20260505083526 | 76 | 234 | 5.0 | 10.0 | 0.00 | 0.00 | 0.00 | 32 | 1010.9 |
| 20260505083024 | 75 | 185 | 3.0 | 8.0 | 0.00 | 0.00 | 0.00 | 33 | 1010.9 |
| 20260505082522 | 75 | 228 | 5.0 | 11.0 | 0.00 | 0.00 | 0.00 | 32 | 1011.0 |
| 20260505082020 | 75 | 198 | 5.0 | 11.0 | 0.00 | 0.00 | 0.00 | 32 | 1010.9 |
| 20260505081519 | 75 | 222 | 5.0 | 11.0 | 0.00 | 0.00 | 0.00 | 33 | 1010.9 |
| 20260505081016 | 74 | 237 | 5.0 | 15.0 | 0.00 | 0.00 | 0.00 | 33 | 1011.0 |
| 20260505080535 | 74 | 269 | 3.0 | 10.0 | 0.00 | 0.00 | 0.00 | 33 | 1011.0 |
| 20260505080034 | 73 | 278 | 4.0 | 13.0 | 0.00 | 0.00 | 0.00 | 34 | 1011.0 |